Showing default

ORBCOMM FM 16, 25417

Orbit data source: Space-Track

ORBCOMM FM 16, 25417 is a payload satellite owned by Orbcomm (US) in LEO that was launched on Sun, 02 Aug 1998 UTC via a PEGASUS XL/HAPS launch vehicle from the Pegasus Launch, Eastern Range Air Space (ERAS). Payload-class satellites include a variety of spacecraft equipped with specific instruments for various scientific and technological missions. These include communications satellites like Starlink; space stations such as the ISS; scientific satellites like the Hubble; Earth observation satellites from companies like Planet Labs, Umbra, and HawkEye 360; GPS; miniature CubeSats for education and research; and military/defense satellites.

Loading next visibility...
Identifier
25417, 1998-046E
Orbit
LEO
Country
Flag of USUS / ORB
Related business
Manufacturer
OSC-Germantown
Mission
Non-operational Commercial Communications
Bus & Motor
MICROSTAR, Unknown motor
Mass
42 kg wet, 42 kg dry
Launch date (UTC)
1998-08-02 (27 years ago)
Launch vehicle
PEGASUS XL/HAPS
Launch site
Pegasus Launch, Eastern Range Air Space (ERAS)
Object type
Payload
Rocket body
Debris
Shape & HBR
Cyl + 2 Pan, 2.1 m
Radar Cross Section
1.484 m², Medium (>0.1 m² and < 1m²)

Expand to show TLE details & history
Last TLE update: 9 hours ago

TLE from 9 hours ago
0 ORBCOMM FM 16
1 25417U 98046E   25243.51078514  .00002348  00000-0  79796-3 0  9991
2 25417  44.9921 175.0953 0006385 322.0960  37.9438 14.39080327415106
Epoch: 2025-08-31T12:15Z
TLE epoch observation values (Epoch: 2025-08-31T12:15:31.836Z)
Latitude
-0.00003°
Longitude
11.28293°
Altitude
757.943 km
Speed
7.479 km/s
True Right ascension
11h 40m 22s
True Declination
0° 00' 00"
Sunlit
Object was in daylight at epoch
Visualization orbit readout
Latitude
Unknown
Longitude
Unknown
Altitude
Unknown
Speed
Unknown
Apparent Right ascension
Unknown
Apparent Declination
Unknown
Sunlit
N/A
Visualization observer readout
Local Sidereal Time
12:36:10
Azimuth
Unknown
Elevation
Unknown
Doppler factor
Unknown
Orbital elements
Apogee altitude
767.646 km
Perigee altitude
758.527 km
Semi-major axis
7,141.224 km
Eccentricity
0.00064
Inclination
44.9921°
RAAN
175.0953°
Arg. of periapsis
322.096°
True anomaly
37.98882°
Mean anomaly
37.9438°
Eccentric anomaly
37.96631°
Mean motion
3.59653 °/min
Orbital period
100.1 mins
BSTAR
0.00079796
Loading maneuver chart data...
Computing Atmospheric mass density...

Documentation

Showing up to 5 results
|